Theta_e
308 308 307 307 307 307 307 307 307 306 306 307 306 305 302 299 296 294 297 306 307 307 307 307 308 308 308 308 309 307 307 309 311 311 311 311 312 312 315 314 316 317 319 318 319 320 323 314 319 324 321 323 323 323
309 310 309 309 308 307 308 307 307 307 306 307 307 306 303 299 300 295 298 306 307 307 306 306 307 308 309 308 308 304 305 307 309 310 310 310 312 312 314 317 314 316 315 316 318 315 311 315 316 316 318 321 321 321
310 310 309 308 307 306 306 306 307 307 306 306 307 307 305 301 301 294 299 304 306 305 307 309 311 310 310 309 308 306 305 305 307 306 307 308 311 312 314 315 314 312 311 314 316 313 313 315 315 315 317 318 319 320
310 310 307 306 305 304 299 303 306 306 307 306 306 306 305 304 303 295 302 305 306 306 307 309 311 310 310 309 308 307 306 306 304 305 307 310 312 312 314 313 313 312 312 313 313 312 314 314 314 314 316 317 318 320
309 308 305 303 302 302 297 297 305 303 306 306 306 306 305 305 299 297 301 305 307 306 309 308 308 312 311 310 310 309 307 306 305 309 310 314 311 312 314 313 314 312 312 314 314 312 313 313 313 314 316 317 318 318
307 307 300 296 294 295 295 302 302 302 305 306 306 306 305 305 302 306 308 309 307 308 307 309 310 311 311 311 311 311 311 307 308 310 312 311 312 312 315 315 311 310 311 311 311 312 312 313 313 313 314 317 317 318
301 295 293 293 294 294 301 302 302 301 304 305 305 306 306 303 305 309 310 309 308 307 307 309 312 313 311 312 312 312 312 311 312 311 313 312 313 313 313 313 310 310 311 311 311 312 313 312 312 314 315 316 317 318
293 292 292 292 293 297 302 302 302 301 303 305 306 306 302 305 307 308 308 307 307 308 308 310 312 312 313 312 312 312 312 312 312 312 312 313 313 312 313 310 310 311 311 311 312 312 312 313 314 314 314 315 316 318
291 291 291 292 293 295 299 301 302 304 305 305 306 304 305 307 310 310 309 308 307 308 309 309 314 316 312 312 312 312 312 314 313 313 313 313 313 313 312 311 311 311 310 310 312 312 313 313 313 313 314 314 315 316
291 291 291 291 292 293 298 299 298 304 305 306 308 308 311 309 307 307 308 308 306 306 308 310 310 315 312 312 312 312 313 315 316 315 312 315 313 312 312 312 311 312 313 312 311 312 313 313 314 314 314 315 315 315
291 291 291 291 291 292 296 295 299 304 305 306 307 309 306 305 306 308 309 309 309 310 309 310 311 313 313 313 313 311 313 313 315 315 314 315 314 311 310 311 311 311 311 311 312 312 313 313 314 313 313 313 314 314
290 290 290 291 291 292 293 297 302 302 303 303 303 304 303 305 307 309 312 312 313 314 312 313 312 312 312 311 312 312 312 312 314 314 314 315 313 310 310 310 310 310 309 309 311 311 310 311 311 312 312 311 311 313
290 290 290 290 291 292 297 300 300 302 304 303 303 302 304 307 312 311 312 313 312 312 311 311 312 313 312 310 311 312 310 312 312 316 315 316 313 312 311 311 311 310 309 310 311 311 311 311 312 311 311 310 311 312
290 290 290 291 295 298 299 300 301 302 303 306 306 309 308 311 312 313 313 313 311 311 309 310 310 312 312 312 311 311 312 313 313 315 315 315 312 312 311 311 310 310 310 310 310 311 311 311 311 311 310 309 310 310
290 290 293 296 296 296 297 298 299 300 302 307 308 310 311 311 311 312 312 311 311 310 309 310 311 311 313 312 311 311 311 312 313 315 315 314 312 312 312 312 311 310 310 310 310 310 310 311 310 310 310 308 308 308
290 292 298 297 296 296 294 297 297 301 303 306 307 311 311 313 313 312 311 311 310 310 311 310 310 311 312 313 312 311 311 314 318 318 313 312 313 312 312 312 311 310 310 310 310 310 309 310 310 310 309 309 309 308
290 297 295 293 291 291 295 299 302 303 303 305 307 308 309 310 311 312 313 312 311 310 311 311 314 313 312 313 314 314 315 315 314 312 312 312 312 311 311 311 311 310 309 309 309 310 310 308 310 309 310 309 308 308
293 294 292 290 293 294 298 300 302 303 304 304 305 306 306 308 310 312 312 312 311 310 310 312 311 312 313 313 313 316 313 312 311 311 311 311 311 310 310 310 309 309 309 309 309 310 309 308 308 308 309 308 308 307
292 290 290 291 294 296 298 302 301 303 304 304 306 307 308 309 310 311 312 312 311 311 310 310 311 312 313 312 312 311 311 311 312 310 310 311 311 310 310 310 309 309 309 309 309 310 310 308 307 308 307 307 307 306
291 291 295 295 295 297 298 301 302 304 304 305 306 307 308 309 309 310 311 311 311 311 311 312 312 311 311 311 311 310 310 311 311 311 310 311 312 311 310 310 310 310 309 309 309 308 309 309 308 308 306 307 307 305
292 294 294 295 297 296 298 300 301 303 304 304 305 306 307 308 308 309 311 311 312 312 313 311 311 310 310 310 310 310 310 309 311 310 310 311 312 312 310 310 310 309 309 309 308 308 309 309 307 307 307 307 306 305
292 293 294 294 296 297 297 298 299 300 301 302 303 304 305 307 306 307 308 309 312 311 310 310 310 310 310 311 311 310 310 310 309 310 309 310 311 310 310 310 310 310 309 309 308 307 309 308 305 306 307 306 305 304
293 294 294 293 296 297 297 298 299 300 303 303 304 306 307 308 307 307 309 309 309 309 309 310 310 311 311 311 311 310 309 309 309 309 310 310 310 310 309 310 310 309 309 309 308 307 307 306 306 305 305 305 305 304
294 293 295 296 297 297 297 298 301 301 302 304 306 304 305 305 305 308 311 310 309 308 309 310 311 310 310 309 309 309 309 309 309 309 309 310 310 310 310 310 309 309 308 307 307 307 306 306 305 305 304 304 304 303
293 295 295 297 297 298 298 299 300 302 301 303 303 304 305 305 307 308 309 308 308 308 309 310 309 308 308 308 308 309 309 309 309 309 309 309 309 309 309 308 308 307 307 306 306 306 306 305 305 304 304 302 303 302
295 293 297 296 297 298 299 298 299 300 301 302 303 303 303 305 305 305 307 307 307 309 309 308 308 308 308 307 307 308 309 308 308 308 308 310 309 308 308 308 307 306 305 305 306 306 304 304 304 303 303 301 300 301
293 293 293 295 296 297 299 299 299 300 301 302 304 306 306 306 307 308 308 305 309 309 307 307 306 307 307 307 307 308 308 307 306 306 307 308 309 308 308 307 307 306 306 305 304 303 303 304 303 303 302 302 300 299
293 293 294 294 294 295 296 297 298 299 300 300 303 303 307 306 304 302 304 303 304 305 306 306 305 305 305 305 306 306 308 308 307 307 308 309 308 307 306 306 305 305 304 303 302 303 302 302 302 301 301 300 299 298
293 293 294 295 295 295 296 297 298 297 297 298 301 300 301 301 301 302 303 302 301 301 304 304 304 304 304 304 305 306 308 307 308 308 308 308 306 306 305 305 304 303 303 300 299 302 301 301 301 300 299 299 298 296
294 294 295 296 297 297 295 295 296 297 298 298 299 299 300 300 300 300 299 300 301 301 302 303 304 304 305 305 305 306 307 307 307 306 306 307 307 306 305 305 303 302 302 301 300 299 298 298 298 298 299 298 297 294
295 295 296 296 297 296 296 296 296 297 297 297 297 298 298 299 298 296 298 298 299 301 302 302 303 302 303 302 304 305 303 302 301 303 304 304 305 305 304 304 303 303 303 302 301 300 299 300 300 299 297 295 294 292
297 297 297 299 298 297 297 297 298 298 298 298 298 298 298 298 298 292 291 293 295 297 298 298 300 299 300 300 299 301 300 300 301 301 303 303 303 305 304 304 304 303 302 301 301 300 299 299 298 297 295 292 291 290
298 298 298 298 298 298 298 298 298 298 298 298 299 299 299 298 295 291 291 291 291 291 293 295 296 297 298 298 299 298 298 298 299 300 300 300 301 300 300 300 300 300 300 300 299 297 296 296 296 294 292 291 290 289
Wind_Speed
27 28 28 28 30 28 28 27 25 25 25 25 25 27 26 23 23 23 20 12 16 11 32 20 15 24 24 15 4 11 13 9 5 6 4 5 4 5 4 4 5 3 4 1 3 4 5 22 16 9 8 5 13 15
28 28 28 29 30 30 30 29 26 25 26 26 26 26 26 24 26 22 20 8 15 21 35 37 26 23 19 14 12 2 4 11 4 3 4 4 2 3 5 2 8 4 4 3 5 2 7 19 11 20 19 18 17 16
29 30 30 33 31 33 32 28 28 26 26 25 26 27 27 25 27 21 18 13 12 14 26 16 10 7 7 8 9 4 4 3 4 8 3 2 4 2 3 3 4 6 14 3 1 5 10 16 19 18 21 22 21 13
31 30 32 32 33 33 34 26 26 27 26 25 26 27 27 29 26 19 14 7 14 10 6 11 2 10 5 8 4 2 6 9 9 8 5 4 4 6 2 1 3 3 5 8 3 8 10 13 22 20 12 15 15 13
31 31 33 33 36 36 32 29 25 29 26 25 25 28 28 31 25 19 15 13 15 10 7 21 23 10 8 9 7 9 6 8 5 4 4 3 3 5 3 1 3 5 5 2 1 8 7 10 15 13 11 9 8 8
30 34 35 33 33 33 31 23 26 26 25 25 24 28 29 27 18 3 4 2 13 13 7 4 9 7 8 8 9 11 11 8 8 6 9 8 7 6 3 2 11 13 12 13 9 10 10 9 8 10 10 9 7 8
32 33 32 30 29 29 26 23 25 25 26 24 24 28 28 20 10 7 1 3 9 8 4 6 5 4 10 5 6 7 10 12 9 9 3 5 8 8 3 3 16 13 13 13 14 15 15 11 11 12 9 9 10 7
31 31 29 27 26 25 23 23 26 26 23 21 23 25 19 7 4 7 9 9 9 7 5 3 5 2 4 3 4 4 6 7 7 6 5 4 3 5 1 8 12 13 13 8 13 9 10 13 14 13 9 8 10 9
28 27 26 25 24 24 22 22 25 22 20 20 18 17 7 3 3 8 11 8 7 7 4 5 6 3 4 6 4 5 5 3 3 3 1 2 3 3 3 7 7 8 4 9 13 9 10 12 13 13 15 15 10 11
25 24 23 23 23 23 22 23 25 22 20 13 10 4 4 1 5 7 4 4 4 6 7 7 20 6 6 1 1 4 3 3 2 3 6 2 1 3 4 5 6 14 8 5 15 13 11 11 11 12 14 16 16 16
22 22 20 21 22 21 20 21 21 20 11 9 6 4 4 9 5 4 4 6 8 5 9 11 20 7 2 3 0 3 3 3 2 3 2 3 2 2 5 4 3 8 11 9 4 11 10 11 11 10 11 13 15 15
22 21 20 21 21 20 19 17 16 10 9 12 13 19 11 4 6 3 4 5 7 5 6 11 6 6 4 3 1 2 2 4 3 9 2 2 5 7 5 5 7 10 11 12 8 9 12 11 17 14 11 13 14 14
22 20 19 19 18 15 12 9 10 13 15 8 3 3 4 5 5 6 6 4 4 6 5 3 4 5 6 3 1 1 2 4 11 3 1 3 10 8 6 5 8 8 9 9 15 15 17 15 15 14 10 15 14 14
21 17 16 16 12 8 7 13 13 15 7 4 5 4 6 6 6 6 8 7 0 1 6 4 4 3 1 3 2 2 4 1 3 3 1 6 4 8 5 3 5 7 7 12 13 14 14 16 21 19 16 20 20 19
20 15 12 6 8 10 13 16 17 11 5 5 5 5 7 14 14 11 11 13 6 4 8 5 3 4 2 3 3 0 2 3 4 3 1 10 9 12 7 3 2 5 8 10 12 13 12 13 15 18 19 20 21 20
18 8 4 13 18 22 19 17 11 9 5 6 9 9 15 13 11 13 16 13 11 9 6 4 3 2 5 3 4 5 2 4 2 3 6 7 5 4 3 4 3 2 5 7 10 11 13 14 13 15 15 19 19 20
15 3 19 22 21 17 11 12 5 7 7 6 9 15 22 22 18 21 15 13 7 11 6 3 3 6 3 3 4 5 4 4 7 10 3 5 2 1 1 3 8 3 3 4 5 7 10 12 13 13 16 16 17 18
14 17 20 16 16 16 8 5 6 7 11 14 13 19 22 23 24 20 17 17 14 14 15 8 8 5 4 3 3 5 9 11 14 10 7 6 2 1 5 5 1 2 4 2 3 3 6 9 11 12 14 14 15 16
20 21 17 10 8 7 4 5 7 6 10 17 20 22 23 23 22 20 17 16 15 15 13 11 6 6 9 12 12 15 9 15 14 6 12 9 8 7 6 3 3 1 1 1 1 4 4 7 9 10 11 11 13 15
20 17 13 6 4 4 5 7 8 8 8 11 19 21 21 20 21 21 17 17 18 15 10 10 12 15 17 17 13 9 12 13 11 8 9 7 5 7 9 7 5 5 2 2 1 0 3 5 7 8 10 11 11 13
19 6 13 12 11 11 7 7 9 11 14 20 20 21 17 18 20 20 19 18 19 17 9 21 25 22 21 18 17 15 15 15 7 13 10 9 8 12 10 10 9 6 4 3 3 1 4 6 6 5 7 7 9 11
17 16 17 10 7 7 10 13 11 11 17 24 26 26 21 16 21 24 22 20 21 22 23 24 21 21 24 23 20 18 16 15 12 10 6 13 14 13 15 13 10 9 6 4 5 2 4 4 5 4 5 6 7 9
12 9 8 9 9 7 9 13 13 13 6 8 14 13 14 17 21 21 18 25 26 24 24 22 22 22 20 20 16 14 14 14 16 14 16 14 9 9 12 6 8 7 7 5 3 3 4 3 5 4 4 5 5 5
13 8 6 7 12 6 8 10 6 8 11 12 11 17 16 19 23 11 6 17 19 19 16 12 6 13 15 15 15 14 16 15 15 14 12 12 12 16 14 12 13 12 6 6 6 5 4 2 2 2 3 3 4 5
6 7 7 7 8 6 6 12 14 14 19 16 17 14 8 12 8 11 12 14 18 13 11 8 9 14 12 12 10 11 9 11 14 15 13 12 9 10 8 11 14 10 9 7 6 5 5 4 4 1 1 2 2 3
7 7 7 7 8 11 11 16 16 16 14 16 16 22 22 11 15 11 9 10 17 10 7 5 9 8 5 5 6 6 7 9 10 11 10 11 15 16 14 17 14 12 9 8 8 8 5 4 3 2 2 3 3 2
6 8 15 22 26 23 12 17 18 7 9 7 6 6 6 4 6 2 13 22 3 3 6 4 5 1 1 4 7 9 11 8 10 14 12 16 9 13 16 12 13 12 14 11 8 7 6 5 5 4 3 2 1 2
14 14 17 22 23 22 14 13 16 18 9 11 9 2 9 5 7 10 15 21 17 14 3 7 2 1 3 5 8 9 10 9 7 9 9 8 11 14 13 12 14 19 14 13 11 8 7 7 7 6 5 4 2 1
16 24 25 20 25 21 21 16 16 25 27 27 9 7 4 3 6 12 10 14 13 16 14 11 10 9 8 8 9 10 10 13 8 10 14 13 14 16 13 12 12 11 11 13 14 12 12 9 8 7 6 5 4 2
24 25 22 19 18 18 25 27 28 24 21 20 15 13 17 11 2 6 10 9 11 11 14 13 13 11 12 8 10 7 7 2 7 2 7 6 8 5 10 11 10 11 11 9 10 16 11 8 5 5 5 7 7 6
16 18 18 20 19 26 26 27 24 24 23 22 22 21 16 6 6 7 8 10 10 9 7 8 8 8 10 9 5 6 9 12 12 5 1 3 4 12 7 13 15 12 12 13 13 9 8 11 13 12 7 7 6 2
13 12 14 15 16 21 19 18 21 18 15 18 18 18 20 22 4 7 18 13 10 5 5 4 9 3 8 10 8 4 2 4 5 6 9 8 7 8 4 9 18 19 8 6 10 11 13 13 8 3 2 2 2 3
11 16 18 13 8 6 10 13 9 13 14 13 18 16 2 6 6 8 10 16 13 11 5 2 1 1 3 3 2 3 4 5 6 2 4 4 3 2 4 5 8 11 13 16 15 13 7 1 4 2 3 5 4 4
Wind_Direction
312 315 316 318 319 321 321 321 321 325 324 328 333 334 334 332 329 324 305 255 261 267 289 288 309 298 302 305 290 321 326 13 10 356 343 352 329 352 303 320 359 333 336 338 241 224 340 324 340 52 310 355 48 53
310 313 314 318 316 315 318 315 316 320 321 322 327 329 332 329 328 321 300 309 270 256 278 292 283 279 277 284 300 287 284 302 336 327 6 311 315 297 313 23 358 11 22 339 7 31 287 310 15 22 9 32 40 37
305 309 313 315 312 313 315 309 311 313 316 318 324 324 328 324 326 316 291 264 277 283 305 306 252 269 251 257 282 191 248 287 301 342 307 284 288 291 331 37 345 345 7 23 15 357 325 325 13 21 22 13 12 27
302 304 309 311 310 313 319 307 305 310 313 314 320 321 324 325 320 309 282 271 250 275 281 305 311 317 217 221 270 262 278 280 286 290 244 251 242 207 328 85 38 8 353 346 1 1 353 360 342 344 11 8 5 11
299 302 307 308 309 310 311 309 299 303 308 312 316 320 320 324 316 299 279 252 237 232 299 304 303 273 228 233 244 280 279 279 282 271 228 265 284 354 101 237 45 3 13 13 46 295 308 320 312 324 351 349 354 354
298 302 305 309 309 311 316 305 305 306 302 308 314 317 317 321 314 337 293 295 217 235 289 301 319 237 229 247 243 235 232 241 242 270 295 306 358 333 17 45 11 6 358 339 315 325 293 307 323 323 329 322 348 335
302 305 308 310 310 313 316 310 306 307 301 305 314 313 316 311 275 223 356 135 181 207 260 275 278 227 222 253 248 246 229 240 260 294 274 304 330 351 34 358 344 340 346 338 336 349 346 344 318 323 333 324 335 344
305 307 309 309 309 311 317 320 313 311 301 312 315 312 318 301 218 242 250 225 207 244 244 268 268 222 185 254 273 249 221 221 232 244 277 322 358 21 81 335 322 326 352 351 344 319 305 329 357 4 348 337 331 345
305 307 310 311 308 305 309 315 316 318 318 321 317 309 294 204 224 234 242 249 216 243 275 241 259 280 187 259 278 261 244 235 267 255 240 54 11 39 315 336 350 353 348 328 346 353 0 4 0 359 359 353 344 340
306 308 311 313 310 304 304 311 315 320 328 338 328 282 209 183 305 302 323 190 215 208 226 257 265 260 277 102 310 282 270 256 229 236 112 60 250 214 248 317 353 346 307 3 17 15 15 16 11 358 360 355 360 359
309 311 313 309 309 308 306 311 309 335 355 348 318 291 314 308 308 227 235 212 184 221 218 242 245 242 238 326 168 264 292 291 254 216 201 139 150 91 98 76 57 35 30 23 18 22 22 17 10 18 7 359 356 349
309 314 314 310 314 313 313 310 314 330 309 297 285 281 291 251 223 226 234 214 201 232 172 246 166 260 113 62 29 293 278 309 262 334 188 171 128 124 84 60 64 56 32 21 39 60 48 44 31 40 23 7 357 356
309 320 317 315 311 311 315 318 324 323 321 304 290 262 240 227 231 222 212 234 223 201 242 208 208 189 166 115 141 295 279 251 335 286 274 127 157 126 103 60 36 37 29 20 57 41 42 48 48 38 33 19 22 13
316 330 318 315 325 333 299 303 316 329 322 254 228 237 225 213 229 214 247 265 293 300 301 270 263 156 57 140 117 253 243 254 277 253 187 131 178 136 117 76 37 2 22 26 43 41 25 45 44 46 52 34 35 24
326 332 310 324 329 310 297 291 294 307 277 265 232 244 235 238 267 276 251 268 275 262 275 296 296 259 167 175 213 261 270 262 229 244 163 165 140 140 145 143 65 1 23 15 22 38 33 31 46 45 43 40 35 31
330 335 290 311 303 304 312 308 295 226 251 244 235 257 268 277 270 255 246 244 253 257 233 251 257 227 217 195 177 205 240 230 252 254 275 149 113 85 116 166 135 23 14 14 8 25 29 30 36 40 39 38 35 31
338 334 295 298 298 304 310 300 219 215 242 242 248 249 262 277 286 289 289 295 248 230 222 203 230 226 193 221 195 178 209 238 239 241 235 340 105 107 155 189 169 146 101 50 30 17 19 23 37 36 36 34 37 35
319 307 308 317 314 333 330 232 247 236 227 244 256 264 267 268 274 271 261 264 260 243 246 221 223 243 229 204 237 217 215 240 252 251 241 159 243 217 235 203 190 76 94 58 58 45 30 31 30 27 24 27 30 30
310 320 326 313 315 310 281 236 221 260 254 264 266 270 271 271 270 271 263 262 263 254 250 248 241 243 250 248 252 270 231 237 242 237 280 216 206 219 231 182 209 175 8 318 83 130 68 63 46 34 29 24 24 26
311 327 326 304 305 267 263 257 233 251 263 273 284 283 281 276 270 268 254 259 252 237 244 246 249 253 265 280 281 271 276 208 221 222 260 186 194 179 225 204 196 203 242 302 65 20 84 70 44 34 33 26 23 22
321 288 300 305 268 242 256 265 246 255 270 263 269 279 286 288 284 276 248 242 240 242 240 246 253 258 266 268 274 286 286 289 267 259 218 220 182 192 234 224 204 215 218 251 266 48 63 84 61 41 31 32 26 26
294 291 289 286 255 245 244 233 240 272 292 278 281 277 280 282 285 280 280 268 239 233 241 246 254 255 260 265 261 259 261 262 245 228 147 185 183 186 196 201 201 205 209 209 239 110 129 82 34 29 46 34 23 17
294 293 253 234 236 242 259 240 244 245 252 276 291 277 260 250 264 265 248 249 257 256 250 252 254 256 261 272 269 270 269 252 247 221 226 228 216 206 187 193 189 194 186 198 148 117 108 81 58 35 28 25 29 38
257 228 238 229 213 254 241 251 251 264 276 263 262 266 275 290 287 274 253 272 249 254 257 244 277 248 247 256 261 260 258 237 235 238 228 239 203 220 181 188 178 195 176 164 149 154 127 149 128 64 36 21 18 13
262 240 230 246 230 234 252 259 255 255 262 269 276 275 274 286 287 287 281 269 262 267 272 194 225 249 254 260 267 247 233 238 234 233 232 184 203 184 227 204 207 175 171 171 159 160 178 178 147 78 34 48 58 18
233 245 223 225 232 237 247 264 271 278 271 271 264 259 262 269 263 254 268 261 278 205 194 197 246 247 254 282 294 276 252 246 241 229 229 196 193 216 195 211 217 170 163 171 175 193 185 164 141 150 226 338 57 75
230 248 254 256 262 272 277 274 281 285 297 285 297 319 237 237 231 227 21 17 12 164 173 192 234 183 69 328 327 322 313 271 252 251 247 202 200 201 233 192 185 185 169 172 167 172 181 172 173 182 180 182 103 67
229 248 255 265 272 279 274 270 279 291 281 280 326 272 340 28 10 331 337 337 354 32 318 231 203 344 338 320 305 294 297 307 281 237 185 175 191 183 173 149 148 156 158 155 153 164 166 165 166 161 157 156 148 79
240 247 257 264 268 271 275 270 269 264 263 269 257 278 278 268 311 319 344 355 4 358 354 19 19 360 325 310 290 296 304 273 287 294 216 163 191 191 168 167 166 157 164 175 172 166 168 164 159 160 152 153 135 132
266 263 255 254 259 264 264 264 267 269 270 272 272 257 267 278 109 286 296 312 330 335 336 347 348 337 328 318 319 306 322 359 242 251 359 249 188 216 195 174 169 179 173 163 177 192 194 192 185 147 154 241 264 281
259 272 277 269 264 263 259 263 264 274 273 270 269 263 256 235 162 41 1 359 356 358 16 2 356 18 28 21 28 54 69 72 49 63 85 339 275 229 228 190 181 177 185 186 180 176 169 167 183 190 223 266 286 250
255 254 258 263 269 273 262 259 264 247 255 269 277 277 272 251 93 51 15 14 20 34 56 59 33 4 89 81 48 38 119 108 38 71 61 91 102 118 168 209 210 210 195 146 144 150 168 186 190 237 257 261 135 132
269 263 265 272 269 265 253 227 251 271 272 263 256 255 342 61 72 35 9 19 17 11 348 293 241 24 48 28 61 78 67 63 57 99 237 253 203 339 29 104 132 148 160 163 160 142 140 201 289 297 126 132 138 143